Weather History for Black River Falls, WI

Change the Weather History Date:

Friday, October 5, 2012

  Actual Average (KLSE) Record (KLSE)
Temperature  
Mean Temperature 42 °F 54 °F  
Max Temperature 51 °F 65 °F 86 °F (1922)
Min Temperature 33 °F 44 °F 27 °F (1935)
Degree Days  
Heating Degree Days 23 11  
Month to date heating degree days 52  
Since 1 July heating degree days 212  
Cooling Degree Days 0 1  
Month to date cooling degree days 5  
Year to date cooling degree days 779  
Moisture  
Dew Point 27 °F    
Average Humidity 54    
Maximum Humidity 87    
Minimum Humidity 35    
Precipitation  
Precipitation 0.00 in 0.09 in 1.04 in (2013)
Month to date precipitation 0.44  
Year to date precipitation 27.96  
Snow  
Snow 0.00 in 0.00 in T in (1991)
Month to date snowfall 0.0  
Since 1 July snowfall 0.0  
Since 1 September snowfall 0.0  
Snow Depth -    
Sea Level Pressure  
Sea Level Pressure 30.07 in    
Wind  
Wind Speed 11 mph (West)    
Max Wind Speed 21 mph    
Max Gust Speed 29 mph    
Visibility 10 miles    
Events      
T = Trace of Precipitation, MM = Missing Value Source: NWS Daily Summary

Daily Weather History Graph

Daily Weather History Graph

Search for Another Location

Airport:

Trip Planner

Search our weather history database for the weather conditions in past years. The results will help you decide how hot, cold, wet, or windy it might be!

Date:

Astronomy

Oct. 05, 2012 Rise Set
Actual Time 7:06 AM CDT 6:35 PM CDT
Civil Twilight 6:37 AM CDT 7:04 PM CDT
Nautical Twilight 6:04 AM CDT 7:38 PM CDT
Astronomical Twilight 5:30 AM CDT 8:12 PM CDT
Moon 9:49 PM CDT (10/5) 12:24 PM CDT (10/5)
Length of Visible Light 12h 27m
Length of Day
11h 29m
Waning Gibbous, 74% of the Moon is Illuminated
Oct 5
Waning Gibbous
Oct 8
Last Quarter
Oct 15
New
Oct 21
First Quarter
Oct 29
Full

Hourly Weather History & Observations

Time (CDT) Temp. Windchill Dew Point Humidity Pressure Visibility Wind Dir Wind Speed Gust Speed Precip Events Conditions
12:15 AM 42.8 °F 37.0 °F 28.4 °F 57% 30.10 in 10.0 mi WNW 10.4 mph 18.4 mph N/A   Mostly Cloudy
12:35 AM 42.8 °F 36.2 °F 28.4 °F 57% 30.10 in 10.0 mi WNW 12.7 mph 19.6 mph N/A   Scattered Clouds
12:55 AM 41.0 °F 35.8 °F 28.4 °F 61% 30.09 in 10.0 mi West 8.1 mph - N/A   Clear
1:15 AM 41.0 °F 34.7 °F 28.4 °F 61% 30.09 in 10.0 mi West 10.4 mph 17.3 mph N/A   Clear
1:35 AM 39.2 °F 37.0 °F 28.4 °F 65% 30.09 in 10.0 mi WSW 3.5 mph - N/A   Clear
1:55 AM 41.0 °F 33.9 °F 28.4 °F 61% 30.11 in 10.0 mi West 12.7 mph 16.1 mph N/A   Clear
2:15 AM 41.0 °F 34.7 °F 28.4 °F 61% 30.11 in 10.0 mi West 10.4 mph 19.6 mph N/A   Clear
2:35 AM 41.0 °F 34.7 °F 28.4 °F 61% 30.11 in 10.0 mi West 10.4 mph - N/A   Clear
2:55 AM 41.0 °F 33.1 °F 28.4 °F 61% 30.10 in 10.0 mi West 15.0 mph 20.7 mph N/A   Clear
3:15 AM 41.0 °F 33.1 °F 28.4 °F 61% 30.09 in 10.0 mi WNW 15.0 mph 18.4 mph N/A   Clear
3:35 AM 41.0 °F 35.2 °F 28.4 °F 61% 30.09 in 10.0 mi West 9.2 mph 17.3 mph N/A   Clear
3:55 AM 39.2 °F 32.5 °F 28.4 °F 65% 30.09 in 10.0 mi West 10.4 mph - N/A   Scattered Clouds
4:15 AM 39.2 °F 33.0 °F 30.2 °F 70% 30.09 in 10.0 mi West 9.2 mph 16.1 mph N/A   Scattered Clouds
4:35 AM 41.0 °F 33.9 °F 28.4 °F 61% 30.09 in 10.0 mi West 12.7 mph 20.7 mph N/A   Mostly Cloudy
4:55 AM 39.2 °F 35.0 °F 30.2 °F 70% 30.08 in 10.0 mi WSW 5.8 mph - N/A   Mostly Cloudy
5:15 AM 37.4 °F 32.1 °F 30.2 °F 75% 30.09 in 10.0 mi WSW 6.9 mph - N/A   Mostly Cloudy
5:35 AM 37.4 °F 32.1 °F 30.2 °F 75% 30.08 in 10.0 mi West 6.9 mph - N/A   Scattered Clouds
5:55 AM 37.4 °F 33.8 °F 30.2 °F 75% 30.08 in 10.0 mi WSW 4.6 mph - N/A   Clear
6:15 AM 37.4 °F 31.4 °F 30.2 °F 75% 30.08 in 10.0 mi WSW 8.1 mph - N/A   Clear
6:35 AM 35.6 °F 31.7 °F 30.2 °F 81% 30.09 in 10.0 mi SW 4.6 mph - N/A   Clear
6:55 AM 35.6 °F 31.7 °F 30.2 °F 81% 30.09 in 10.0 mi SW 4.6 mph - N/A   Clear
7:15 AM 33.8 °F 30.8 °F 30.2 °F 87% 30.09 in 10.0 mi SW 3.5 mph - N/A   Clear
7:35 AM 33.8 °F 30.8 °F 30.2 °F 87% 30.08 in 10.0 mi SW 3.5 mph - N/A   Clear
7:55 AM 35.6 °F 29.9 °F 30.2 °F 81% 30.08 in 10.0 mi SW 6.9 mph - N/A   Clear
8:15 AM 37.4 °F 30.3 °F 30.2 °F 75% 30.09 in 10.0 mi West 10.4 mph - N/A   Clear
8:35 AM 41.0 °F 34.3 °F 30.2 °F 65% 30.08 in 10.0 mi West 11.5 mph - N/A   Clear
8:55 AM 41.0 °F 33.9 °F 28.4 °F 61% 30.08 in 10.0 mi West 12.7 mph 21.9 mph N/A   Clear
9:15 AM 42.8 °F 34.8 °F 26.6 °F 53% 30.09 in 10.0 mi West 17.3 mph 25.3 mph N/A   Clear
9:35 AM 42.8 °F 34.3 °F 26.6 °F 53% 30.09 in 10.0 mi West 19.6 mph 27.6 mph N/A   Clear
9:55 AM 44.6 °F 37.2 °F 26.6 °F 49% 30.09 in 10.0 mi West 17.3 mph 26.5 mph N/A   Clear
10:15 AM 44.6 °F 36.6 °F 26.6 °F 49% 30.08 in 10.0 mi West 19.6 mph 24.2 mph N/A   Clear
10:35 AM 44.6 °F 38.1 °F 26.6 °F 49% 30.08 in 10.0 mi West 13.8 mph 20.7 mph N/A   Clear
10:55 AM 46.4 °F 40.1 °F 26.6 °F 46% 30.07 in 10.0 mi West 15.0 mph 21.9 mph N/A   Clear
11:35 AM 46.4 °F 39.0 °F 24.8 °F 43% 30.07 in 10.0 mi WNW 19.6 mph 26.5 mph N/A   Clear
11:55 AM 46.4 °F 39.2 °F 26.6 °F 46% 30.07 in 10.0 mi West 18.4 mph 27.6 mph N/A   Clear
12:15 PM 48.2 °F - 26.6 °F 43% 30.06 in 10.0 mi West 13.8 mph 24.2 mph N/A   Clear
12:35 PM 50.0 °F - 26.6 °F 40% 30.06 in 10.0 mi West 17.3 mph 21.9 mph N/A   Scattered Clouds
12:55 PM 50.0 °F - 26.6 °F 40% 30.05 in 10.0 mi West 16.1 mph 24.2 mph N/A   Scattered Clouds
1:35 PM 48.2 °F - 24.8 °F 40% 30.04 in 10.0 mi West 16.1 mph 25.3 mph N/A   Mostly Cloudy
1:55 PM 48.2 °F - 24.8 °F 40% 30.04 in 10.0 mi West 19.6 mph 25.3 mph N/A   Mostly Cloudy
2:15 PM 50.0 °F - 24.8 °F 37% 30.03 in 10.0 mi West 12.7 mph 28.8 mph N/A   Mostly Cloudy
2:35 PM 51.8 °F - 24.8 °F 35% 30.02 in 10.0 mi WNW 18.4 mph 26.5 mph N/A   Mostly Cloudy
2:55 PM 50.0 °F - 24.8 °F 37% 30.02 in 10.0 mi West 20.7 mph 26.5 mph N/A   Scattered Clouds
3:15 PM 51.8 °F - 24.8 °F 35% 30.03 in 10.0 mi West 17.3 mph 25.3 mph N/A   Mostly Cloudy
3:35 PM 50.0 °F - 24.8 °F 37% 30.03 in 10.0 mi West 15.0 mph 24.2 mph N/A   Scattered Clouds
3:55 PM 50.0 °F - 24.8 °F 37% 30.03 in 10.0 mi West 20.7 mph 26.5 mph N/A   Scattered Clouds
4:15 PM 50.0 °F - 24.8 °F 37% 30.03 in 10.0 mi West 16.1 mph 25.3 mph N/A   Scattered Clouds
4:35 PM 50.0 °F - 26.6 °F 40% 30.04 in 10.0 mi WNW 15.0 mph 25.3 mph N/A   Scattered Clouds
4:55 PM 46.4 °F 40.4 °F 26.6 °F 46% 30.04 in 10.0 mi WNW 13.8 mph 23.0 mph N/A   Mostly Cloudy
5:15 PM 46.4 °F 41.1 °F 26.6 °F 46% 30.04 in 10.0 mi West 11.5 mph 25.3 mph N/A   Overcast
5:35 PM 46.4 °F 40.4 °F 26.6 °F 46% 30.04 in 10.0 mi West 13.8 mph 25.3 mph N/A   Overcast
5:55 PM 46.4 °F 40.1 °F 24.8 °F 43% 30.04 in 10.0 mi West 15.0 mph 23.0 mph N/A   Overcast
6:15 PM 44.6 °F 37.8 °F 24.8 °F 46% 30.04 in 10.0 mi West 15.0 mph 23.0 mph N/A   Overcast
6:35 PM 44.6 °F 36.9 °F 26.6 °F 49% 30.05 in 10.0 mi West 18.4 mph 26.5 mph N/A   Overcast
6:55 PM 44.6 °F 39.2 °F 26.6 °F 49% 30.05 in 10.0 mi WNW 10.4 mph 21.9 mph N/A   Overcast
7:15 PM 44.6 °F 39.7 °F 24.8 °F 46% 30.06 in 10.0 mi WNW 9.2 mph 21.9 mph N/A   Overcast
7:35 PM 42.8 °F 36.6 °F 24.8 °F 49% 30.07 in 10.0 mi WNW 11.5 mph 20.7 mph N/A   Overcast
7:55 PM 42.8 °F 37.0 °F 24.8 °F 49% 30.08 in 10.0 mi NW 10.4 mph - N/A   Overcast
8:15 PM 42.8 °F 35.1 °F 24.8 °F 49% 30.08 in 10.0 mi NW 16.1 mph 21.9 mph N/A   Overcast
8:35 PM 41.0 °F 35.2 °F 24.8 °F 53% 30.08 in 10.0 mi NW 9.2 mph 17.3 mph N/A   Overcast
8:55 PM 41.0 °F 35.8 °F 23.0 °F 49% 30.08 in 10.0 mi NW 8.1 mph 16.1 mph N/A   Overcast
9:15 PM 41.0 °F 34.3 °F 23.0 °F 49% 30.08 in 10.0 mi WNW 11.5 mph 16.1 mph N/A   Overcast
9:35 PM 41.0 °F 34.3 °F 23.0 °F 49% 30.08 in 10.0 mi NW 11.5 mph 18.4 mph N/A   Overcast
9:55 PM 41.0 °F 33.9 °F 23.0 °F 49% 30.08 in 10.0 mi WNW 12.7 mph 21.9 mph N/A   Overcast
10:35 PM 41.0 °F 34.3 °F 23.0 °F 49% 30.07 in 10.0 mi WNW 11.5 mph 19.6 mph N/A   Overcast
10:55 PM 41.0 °F 35.2 °F 23.0 °F 49% 30.07 in 10.0 mi WNW 9.2 mph - N/A   Overcast
11:15 PM 41.0 °F 35.8 °F 23.0 °F 49% 30.07 in 10.0 mi WNW 8.1 mph - N/A   Overcast
11:35 PM 41.0 °F 34.3 °F 23.0 °F 49% 30.07 in 10.0 mi West 11.5 mph - N/A   Overcast
11:55 PM 41.0 °F 35.8 °F 23.0 °F 49% 30.07 in 10.0 mi WNW 8.1 mph - N/A   Overcast